Weather History for Thermal, CA

Change the Weather History Date:

Wednesday, February 6, 2013

  Actual Average Record
Temperature  
Mean Temperature 64 °F 56 °F  
Max Temperature 81 °F 73 °F 94 °F (1963)
Min Temperature 47 °F 40 °F 23 °F (2003)
Degree Days  
Heating Degree Days 1 9  
Month to date heating degree days 16 54  
Since 1 July heating degree days 843 914  
Cooling Degree Days 0 0  
Month to date cooling degree days 0 0  
Year to date cooling degree days 0 2  
Growing Degree Days 13 (Base 50)    
Moisture  
Dew Point 38 °F    
Average Humidity 45    
Maximum Humidity 76    
Minimum Humidity 13    
Precipitation  
Precipitation 0.00 in 0.02 in 0.96 in (1992)
Month to date precipitation T 0.12  
Year to date precipitation 0.37 0.79  
Since 1 July precipitation 2.55 2.17  
Snow  
Snow 0.00 in - - ()
Month to date snowfall 0.0  
Year to date snowfall 0.0  
Since 1 July snowfall 0.0  
Snow Depth 0.00 in    
Sea Level Pressure  
Sea Level Pressure 29.91 in    
Wind  
Wind Speed 6 mph (NW)    
Max Wind Speed 14 mph    
Max Gust Speed 17 mph    
Visibility 9 miles    
Events      
T = Trace of Precipitation, MM = Missing Value Source: NWS Daily Summary

Daily Weather History Graph

Daily Weather History Graph

Search for Another Location

Airport:

Trip Planner

Search our weather history database for the weather conditions in past years. The results will help you decide how hot, cold, wet, or windy it might be!

Date:

Astronomy

Feb. 06, 2013 Rise Set
Actual Time 6:36 AM PST 5:21 PM PST
Civil Twilight 6:11 AM PST 5:46 PM PST
Nautical Twilight 5:41 AM PST 6:16 PM PST
Astronomical Twilight 5:12 AM PST 6:45 PM PST
Moon 3:19 AM PST (2/6) 1:49 PM PST (2/6)
Length of Visible Light 11h 35m
Length of Day
10h 44m
Waning Crescent, 16% of the Moon is Illuminated
Feb 6
Waning Crescent
Feb 9
New
Feb 17
First Quarter
Feb 25
Full
Mar 4
Last Quarter

Hourly Weather History & Observations

Time (PST) Temp. Dew Point Humidity Pressure Visibility Wind Dir Wind Speed Gust Speed Precip Events Conditions
12:52 AM 57.9 °F 41.0 °F 53% 29.87 in 10.0 mi Calm Calm - N/A   Clear
1:52 AM 57.0 °F 39.9 °F 53% 29.86 in 10.0 mi Calm Calm - N/A   Clear
2:52 AM 57.9 °F 39.0 °F 49% 29.85 in 10.0 mi WNW 4.6 mph - N/A   Clear
3:52 AM 59.0 °F 41.0 °F 51% 29.85 in 10.0 mi NNW 8.1 mph - N/A   Clear
5:52 AM 46.9 °F 39.0 °F 74% 29.86 in 8.0 mi NNW 3.5 mph - N/A   Clear
6:52 AM 55.0 °F 43.0 °F 64% 29.88 in 6.0 mi NNW 6.9 mph - N/A   Haze
7:52 AM 61.0 °F 42.1 °F 50% 29.91 in 9.0 mi Calm Calm - N/A   Clear
8:52 AM 63.0 °F 44.1 °F 50% 29.94 in 9.0 mi NNW 10.4 mph - N/A   Clear
9:52 AM 68.0 °F 42.1 °F 39% 29.95 in 10.0 mi NNW 6.9 mph - N/A   Clear
10:52 AM 72.0 °F 39.0 °F 30% 29.94 in 10.0 mi NNW 9.2 mph - N/A   Clear
11:52 AM 75.0 °F 37.9 °F 26% 29.91 in 10.0 mi WNW 8.1 mph - N/A   Clear
12:52 PM 79.0 °F 30.0 °F 17% 29.89 in 10.0 mi West 10.4 mph - N/A   Clear
1:52 PM 80.1 °F 27.0 °F 14% 29.88 in 10.0 mi WNW 10.4 mph - N/A   Clear
2:52 PM 80.1 °F 25.0 °F 13% 29.88 in 10.0 mi WNW 11.5 mph - N/A   Clear
3:52 PM 79.0 °F 24.1 °F 13% 29.89 in 10.0 mi Calm Calm - N/A   Clear
4:52 PM 72.0 °F 37.9 °F 29% 29.90 in 10.0 mi SE 5.8 mph - N/A   Clear
5:52 PM 64.0 °F 41.0 °F 43% 29.93 in 10.0 mi Calm Calm - N/A   Clear
6:52 PM 59.0 °F 41.0 °F 51% 29.95 in 10.0 mi WNW 3.5 mph - N/A   Clear
8:52 PM 63.0 °F 43.0 °F 48% 29.98 in 7.0 mi NNW 5.8 mph - N/A   Clear
10:52 PM 60.1 °F 44.1 °F 55% 30.01 in 6.0 mi NNW 10.4 mph - N/A   Haze
11:52 PM 55.9 °F 43.0 °F 62% 30.02 in 6.0 mi NNW 4.6 mph - N/A   Haze